ON6OO-13 Weather Reports


time (UTC)temp
C
wind
direction
speed
KPH
gust
KPH
rain 1hr
cm
rain 24hr
cm
rain mn
cm
humidity
%
barometer
mb
20260507141150 14 330 1.6 3.2 0.00 0.00 0.00 60 1015.9
20260507135638 14 322 6.4 6.4 0.00 0.00 0.00 58 1015.9
20260507134126 14 0 8.0 11.3 0.00 0.00 0.00 58 1016.2
20260507132614 14 15 4.8 6.4 0.00 0.00 0.00 59 1015.9
20260507131102 15 25 0.0 0.0 0.00 0.00 0.00 60 1015.9
20260507125550 15 351 0.0 0.0 0.00 0.00 0.00 59 1015.9
20260507124038 15 216 0.0 0.0 0.00 0.00 0.00 59 1015.9
20260507122526 15 120 3.2 6.4 0.00 0.00 0.00 59 1015.9
20260507121014 15 265 0.0 0.0 0.00 0.00 0.00 58 1015.9
20260507115502 14 216 0.0 0.0 0.00 0.00 0.00 58 1015.5
20260507113950 13 140 0.0 0.0 0.00 0.00 0.00 63 1016.2
20260507112438 13 342 3.2 6.4 0.00 0.00 0.00 61 1015.9
20260507110926 14 346 6.4 6.4 0.00 0.00 0.00 63 1015.9
20260507105414 14 47 1.6 3.2 0.00 0.00 0.00 64 1015.9
20260507103902 13 75 6.4 11.3 0.00 0.00 0.00 64 1015.9
20260507102349 13 302 0.0 3.2 0.00 0.00 0.00 66 1016.2
20260507100838 13 303 0.0 3.2 0.00 0.00 0.00 67 1016.2
20260507095326 13 28 14.5 19.3 0.00 0.00 0.00 66 1015.9
20260507093813 12 281 0.0 0.0 0.00 0.00 0.00 71 1015.9
20260507092301 12 70 6.4 6.4 0.00 0.00 0.00 70 1015.9
20260507090749 12 305 9.7 11.3 0.00 0.00 0.00 70 1015.9
20260507085238 12 20 12.9 19.3 0.00 0.00 0.00 72 1016.2
20260507083725 11 0 8.0 11.3 0.00 0.00 0.00 75 1016.2
20260507082213 11 332 3.2 6.4 0.00 0.00 0.00 75 1016.2
20260507080701 11 12 4.8 6.4 0.00 0.00 0.00 76 1016.2
20260507075150 10 325 0.0 3.2 0.00 0.00 0.00 79 1015.9
20260507073637 10 354 4.8 6.4 0.00 0.00 0.00 81 1016.2
20260507072125 9 46 3.2 6.4 0.00 0.00 0.00 82 1015.9
20260507070613 9 16 4.8 6.4 0.00 0.00 0.00 84 1015.9
20260507065101 8 319 11.3 16.1 0.00 0.00 0.00 85 1015.9
20260507063550 8 13 4.8 6.4 0.00 0.00 0.00 87 1015.9
20260507062037 8 13 4.8 6.4 0.00 0.00 0.00 88 1015.5
20260507060525 8 326 0.0 0.0 0.00 0.00 0.00 88 1015.5
20260507055014 8 346 6.4 6.4 0.00 0.00 0.00 88 1015.2
20260507053501 8 341 0.0 0.0 0.00 0.00 0.00 88 1015.2
20260507051949 8 358 0.0 0.0 0.00 0.00 0.00 89 1015.2
20260507050437 8 7 0.0 0.0 0.00 0.00 0.00 89 1015.2
20260507044925 8 346 0.0 0.0 0.00 0.00 0.00 90 1014.9
20260507043413 8 351 0.0 0.0 0.00 0.00 0.00 90 1014.5
20260507041901 8 343 0.0 0.0 0.00 0.00 0.00 90 1014.5
20260507040349 8 331 0.0 0.0 0.00 0.00 0.00 91 1014.5
20260507034837 8 256 0.0 0.0 0.00 0.00 0.00 90 1014.5
20260507033325 8 252 0.0 0.0 0.00 0.00 0.00 90 1014.2
20260507031813 8 252 0.0 0.0 0.00 0.00 0.00 89 1014.2
20260507030301 8 252 0.0 0.0 0.00 0.00 0.00 88 1013.8
20260507024749 8 252 0.0 0.0 0.00 0.00 0.00 87 1014.2
20260507023237 8 219 0.0 0.0 0.00 0.00 0.00 88 1013.8
20260507021725 8 219 0.0 0.0 0.00 0.00 0.00 88 1013.8
20260507020213 8 219 0.0 0.0 0.00 0.00 0.00 87 1013.5
20260507014702 8 244 0.0 0.0 0.00 0.00 0.00 87 1013.5
20260507013149 8 266 0.0 0.0 0.00 0.00 0.00 88 1013.5
20260507011637 9 258 0.0 0.0 0.00 0.00 0.00 88 1013.5
20260507010125 9 220 0.0 0.0 0.00 0.00 0.00 88 1013.5
20260507004613 9 217 0.0 0.0 0.00 0.00 0.00 87 1013.5
20260507003101 9 251 0.0 0.0 0.00 0.00 0.00 86 1013.5
20260507001549 9 280 0.0 0.0 0.00 0.00 0.00 85 1013.5
20260507000037 9 303 0.0 0.0 0.00 0.00 0.00 85 1013.2
20260506234525 9 280 0.0 0.0 0.00 0.00 0.00 85 1013.2
20260506233013 9 315 0.0 0.0 0.00 0.00 0.00 84 1013.2
20260506231501 9 334 0.0 0.0 0.00 0.00 0.00 84 1012.8
20260506225949 9 356 0.0 0.0 0.00 0.00 0.00 84 1012.8
20260506224437 9 358 0.0 0.0 0.00 0.00 0.00 85 1012.8
20260506222925 9 343 0.0 0.0 0.00 0.00 0.00 85 1012.5
20260506221413 10 331 0.0 0.0 0.00 0.00 0.00 85 1012.5
20260506215901 10 315 0.0 0.0 0.00 0.00 0.00 84 1012.5
20260506214349 10 338 0.0 0.0 0.00 0.00 0.00 83 1012.5
20260506212837 10 320 0.0 0.0 0.00 0.00 0.00 83 1012.5
20260506211325 10 341 0.0 0.0 0.00 0.00 0.00 83 1012.5
20260506205813 10 341 0.0 0.0 0.00 0.00 0.00 83 1012.1
20260506204301 10 358 0.0 0.0 0.00 0.00 0.00 82 1012.5
20260506202749 10 12 0.0 3.2 0.00 0.00 0.00 83 1011.8
20260506201237 10 3 6.4 11.3 0.00 0.00 0.00 84 1011.8
20260506195724 10 10 0.0 0.0 0.00 0.00 0.00 84 1011.8
20260506194212 10 4 3.2 6.4 0.00 0.00 0.00 85 1011.8
20260506192701 10 345 0.0 3.2 0.00 0.00 0.00 85 1011.5
20260506191149 10 7 8.0 11.3 0.00 0.00 0.00 85 1011.5
20260506185636 10 15 0.0 3.2 0.00 0.00 0.00 85 1011.1
20260506184125 10 129 0.0 3.2 0.00 0.00 0.00 83 1011.1
20260506182612 10 355 9.7 16.1 0.00 0.00 0.00 80 1010.8
20260506181100 11 354 12.9 16.1 0.00 0.00 0.00 78 1010.8
20260506175548 11 354 16.1 19.3 0.00 0.00 0.00 76 1010.4
20260506174036 11 32 9.7 16.1 0.00 0.00 0.00 74 1010.1
20260506172524 11 4 16.1 19.3 0.00 0.00 0.00 73 1010.1
20260506171012 11 37 4.8 6.4 0.00 0.00 0.00 73 1010.1
20260506165500 11 19 16.1 19.3 0.00 0.00 0.00 72 1009.8
20260506163948 12 10 19.3 27.4 0.00 0.00 0.00 71 1009.4
20260506162436 12 15 14.5 19.3 0.00 0.00 0.00 67 1009.4
20260506160924 13 338 20.9 27.4 0.00 0.00 0.00 63 1009.4
20260506155412 13 33 12.9 22.5 0.00 0.00 0.00 64 1009.1
20260506153900 13 267 12.9 16.1 0.00 0.00 0.00 64 1009.1
20260506152348 13 334 16.1 19.3 0.00 0.00 0.00 65 1009.1
20260506150836 13 331 17.7 22.5 0.00 0.00 0.00 65 1009.1
20260506145324 13 20 9.7 11.3 0.00 0.00 0.00 67 1009.1
20260506143812 13 21 11.3 16.1 0.00 0.00 0.00 66 1009.1
20260506142300 13 315 17.7 22.5 0.00 0.00 0.00 65 1008.8